EW7966 Weather Reports


time (UTC)temp
F
wind
direction
speed
knots
gust
knots
rain 1hr
in
rain 24hr
in
rain mn
in
humidity
%
barometer
mb
20260906213012 83 130 12.2 20.0 0.00 0.00 0.00 39 999.5
20260906213007 83 130 13.0 20.0 0.00 0.00 0.00 39 1017.3
20260906212006 83 96 11.3 16.5 0.00 0.00 0.00 41 1017.3
20260906211506 83 123 12.2 16.5 0.00 0.00 0.00 40 1017.5
20260906211503 83 123 12.2 16.5 0.00 0.00 0.00 40 999.8
20260906211011 83 140 10.4 15.6 0.00 0.00 0.00 41 1017.7
20260906210505 82 117 9.6 13.9 0.00 0.00 0.00 40 1017.6
20260906210007 82 140 10.4 16.5 0.00 0.00 0.00 41 1017.8
20260906205505 83 135 11.3 17.4 0.00 0.00 0.00 41 1017.8
20260906205005 83 143 12.2 17.4 0.00 0.00 0.00 40 1017.8
20260906204506 83 112 7.8 13.9 0.00 0.00 0.00 40 1017.9
20260906204006 83 142 8.7 15.6 0.00 0.00 0.00 38 1018.0
20260906203505 83 113 11.3 18.2 0.00 0.00 0.00 41 1018.0
20260906203007 83 74 10.4 13.9 0.00 0.00 0.00 40 1018.0
20260906203003 83 74 9.6 13.9 0.00 0.00 0.00 40 1000.3
20260906202506 83 110 7.8 13.0 0.00 0.00 0.00 42 1018.0
20260906202006 83 93 9.6 16.5 0.00 0.00 0.00 42 1018.2
20260906201505 83 106 11.3 16.5 0.00 0.00 0.00 40 1018.2
20260906201006 82 103 8.7 14.8 0.00 0.00 0.00 40 1018.2
20260906200505 82 98 8.7 15.6 0.00 0.00 0.00 40 1018.3
20260906200008 82 127 10.4 15.6 0.00 0.00 0.00 39 1018.5
20260906200006 82 127 9.6 15.6 0.00 0.00 0.00 39 1001.0
20260906195505 82 113 7.0 13.9 0.00 0.00 0.00 39 1018.5
20260906195006 82 126 7.0 13.0 0.00 0.00 0.00 39 1018.4
20260906194505 82 168 8.7 13.9 0.00 0.00 0.00 39 1018.5
20260906194503 82 168 7.8 13.9 0.00 0.00 0.00 39 1001.0
20260906194005 82 105 7.0 13.9 0.00 0.00 0.00 40 1018.5
20260906193505 82 138 9.6 14.8 0.00 0.00 0.00 38 1018.6
20260906193005 83 115 11.3 13.9 0.00 0.00 0.00 38 1018.5
20260906192505 82 113 7.8 12.2 0.00 0.00 0.00 41 1018.6
20260906192006 82 71 7.8 13.0 0.00 0.00 0.00 40 1018.6
20260906191508 82 146 8.7 13.0 0.00 0.00 0.00 40 1001.3
20260906191506 82 146 8.7 13.0 0.00 0.00 0.00 40 1018.8
20260906191006 81 127 7.0 12.2 0.00 0.00 0.00 40 1018.8
20260906190008 81 162 6.1 13.9 0.00 0.00 0.00 38 1019.1
20260906190004 81 162 5.2 13.9 0.00 0.00 0.00 38 1001.6
20260906185506 81 154 9.6 13.9 0.00 0.00 0.00 37 1019.2
20260906185007 81 128 9.6 12.2 0.00 0.00 0.00 39 1019.2
20260906184505 81 78 6.1 11.3 0.00 0.00 0.00 39 1019.4
20260906184503 81 78 5.2 11.3 0.00 0.00 0.00 39 1001.9
20260906184005 81 129 5.2 11.3 0.00 0.00 0.00 42 1019.5
20260906183006 80 103 4.3 10.4 0.00 0.00 0.00 41 1019.8
20260906183004 80 103 3.5 10.4 0.00 0.00 0.00 41 1002.3
20260906182505 80 40 6.1 10.4 0.00 0.00 0.00 42 1019.9
20260906181513 80 32 1.7 8.7 0.00 0.00 0.00 43 1002.6
20260906181506 80 32 2.6 8.7 0.00 0.00 0.00 43 1020.1
20260906181005 79 5 3.5 8.7 0.00 0.00 0.00 43 1020.1
20260906180011 79 61 3.5 9.6 0.00 0.00 0.00 41 1002.8
20260906175507 79 91 4.3 10.4 0.00 0.00 0.00 41 1020.3
20260906175006 79 75 1.7 10.4 0.00 0.00 0.00 42 1020.3
20260906174506 78 52 4.3 8.7 0.00 0.00 0.00 43 1020.5
20260906174006 78 118 2.6 5.2 0.00 0.00 0.00 41 1020.5
20260906173505 78 78 3.5 7.8 0.00 0.00 0.00 41 1020.5
20260906173006 78 137 4.3 7.8 0.00 0.00 0.00 40 1020.5
20260906173003 78 137 4.3 7.8 0.00 0.00 0.00 40 1003.0
20260906172504 78 90 2.6 5.2 0.00 0.00 0.00 41 1020.5
20260906172007 78 50 1.7 6.1 0.00 0.00 0.00 41 1020.5
20260906171506 78 105 2.6 7.0 0.00 0.00 0.00 41 1020.6
20260906171504 78 105 2.6 7.0 0.00 0.00 0.00 41 1003.2
20260906171005 78 86 3.5 7.0 0.00 0.00 0.00 41 1020.6
20260906170505 77 107 2.6 7.8 0.00 0.00 0.00 42 1020.8
20260906170007 78 130 5.2 7.8 0.00 0.00 0.00 40 1020.7
20260906165505 77 32 1.7 4.3 0.00 0.00 0.00 42 1020.7
20260906164506 77 48 1.7 4.3 0.00 0.00 0.00 43 1020.9
20260906164503 77 48 0.9 4.3 0.00 0.00 0.00 43 1003.5
20260906164005 76 41 1.7 4.3 0.00 0.00 0.00 44 1020.9
20260906163505 76 333 1.7 4.3 0.00 0.00 0.00 44 1020.9
20260906163006 77 39 2.6 4.3 0.00 0.00 0.00 44 1021.0
20260906163003 77 39 2.6 4.3 0.00 0.00 0.00 44 1003.6
20260906162506 76 360 1.7 4.3 0.00 0.00 0.00 43 1021.0
20260906162006 76 317 2.6 4.3 0.00 0.00 0.00 44 1021.0
20260906161506 76 307 2.6 4.3 0.00 0.00 0.00 45 1021.0
20260906161504 76 307 2.6 4.3 0.00 0.00 0.00 45 1003.7
20260906161006 75 31 2.6 4.3 0.00 0.00 0.00 45 1020.9
20260906160006 75 26 0.9 5.2 0.00 0.00 0.00 46 1020.8
20260906160004 75 26 0.0 5.2 0.00 0.00 0.00 46 1003.5
20260906155505 74 26 2.6 5.2 0.00 0.00 0.00 45 1020.8
20260906155007 74 224 0.9 4.3 0.00 0.00 0.00 49 1020.9
20260906154510 74 224 1.7 4.3 0.00 0.00 0.00 48 1003.4
20260906154506 74 224 1.7 4.3 0.00 0.00 0.00 48 1020.7
20260906154006 74 360 0.0 2.6 0.00 0.00 0.00 48 1021.0
20260906153506 73 256 0.9 3.5 0.00 0.00 0.00 51 1020.9
20260906153012 72 256 1.7 3.5 0.00 0.00 0.00 53 1020.8
20260906153009 72 256 1.7 3.5 0.00 0.00 0.00 53 1003.5
20260906152506 72 240 1.7 4.3 0.00 0.00 0.00 51 1021.0
20260906151506 71 306 1.7 3.5 0.00 0.00 0.00 53 1021.0
20260906151504 71 306 1.7 3.5 0.00 0.00 0.00 53 1003.8
20260906150007 69 299 3.5 7.0 0.00 0.00 0.00 55 1020.8
20260906150005 69 299 2.6 7.0 0.00 0.00 0.00 55 1003.6
20260906145006 69 309 2.6 6.1 0.00 0.00 0.00 55 1020.9
20260906144505 68 311 3.5 7.8 0.00 0.00 0.00 56 1020.9
20260906144503 68 311 2.6 7.8 0.00 0.00 0.00 56 1003.7
20260906144005 68 300 4.3 7.8 0.00 0.00 0.00 56 1020.9
20260906143505 67 299 2.6 8.7 0.00 0.00 0.00 57 1020.8
20260906143007 67 275 4.3 7.8 0.00 0.00 0.00 57 1020.7
20260906142505 67 309 2.6 4.3 0.00 0.00 0.00 57 1020.7
20260906141505 66 300 1.7 3.5 0.00 0.00 0.00 59 1020.8
20260906141503 66 300 0.9 3.5 0.00 0.00 0.00 59 1003.7
20260906141005 65 300 1.7 3.5 0.00 0.00 0.00 60 1020.8
20260906140007 64 281 1.7 4.3 0.00 0.00 0.00 60 1020.7
20260906140004 64 281 0.9 4.3 0.00 0.00 0.00 60 1003.5
20260906135504 63 249 1.7 4.3 0.00 0.00 0.00 62 1020.5
20260906135005 63 249 1.7 4.3 0.00 0.00 0.00 63 1020.5
20260906134504 63 249 2.6 4.3 0.00 0.00 0.00 63 1003.4
20260906133005 61 249 2.6 4.3 0.00 0.00 0.00 63 1020.4
20260906132006 60 234 2.6 6.1 0.00 0.00 0.00 64 1020.3
20260906131509 60 262 2.6 6.1 0.00 0.00 0.00 65 1003.3
20260906131005 59 234 1.7 3.5 0.00 0.00 0.00 66 1020.2
20260906130504 59 204 2.6 3.5 0.00 0.00 0.00 66 1020.2
20260906130006 59 204 1.7 2.6 0.00 0.00 0.00 67 1020.2
20260906130004 59 204 0.9 2.6 0.00 0.00 0.00 67 1003.1
20260906125505 58 204 1.7 3.5 0.00 0.00 0.00 68 1020.3
20260906125005 58 204 1.7 3.5 0.00 0.00 0.00 68 1020.3
20260906124506 57 204 0.9 1.7 0.00 0.00 0.00 69 1020.3
20260906124504 57 204 0.9 1.7 0.00 0.00 0.00 69 1003.2
20260906124006 57 204 0.9 2.6 0.00 0.00 0.00 70 1020.3
20260906123504 57 204 0.9 3.5 0.00 0.00 0.00 70 1020.2
20260906123005 57 204 1.7 3.5 0.00 0.00 0.00 70 1003.0
20260906122005 58 204 0.9 1.7 0.00 0.00 0.00 67 1020.1
20260906121506 59 204 1.7 2.6 0.00 0.00 0.00 66 1020.1
20260906121504 59 204 0.9 2.6 0.00 0.00 0.00 66 1003.0
20260906121005 59 204 1.7 2.6 0.00 0.00 0.00 65 1020.2
20260906120505 60 204 1.7 2.6 0.00 0.00 0.00 64 1020.1
20260906120006 60 204 1.7 2.6 0.00 0.00 0.00 65 1020.1
20260906120004 60 204 1.7 2.6 0.00 0.00 0.00 65 1002.9
20260906115505 60 204 0.0 1.7 0.00 0.00 0.00 64 1020.1
20260906114506 60 204 0.9 1.7 0.00 0.00 0.00 64 1002.5
20260906114005 60 204 0.9 1.7 0.00 0.00 0.00 64 1019.8
20260906113504 60 204 0.0 1.7 0.00 0.00 0.00 64 1019.9
20260906113006 60 204 0.9 1.7 0.00 0.00 0.00 64 1002.6
20260906112504 60 204 0.9 2.6 0.00 0.00 0.00 65 1019.9
20260906112006 59 204 0.9 2.6 0.00 0.00 0.00 66 1019.9
20260906111504 58 204 1.7 2.6 0.00 0.00 0.00 67 1019.8
20260906111502 58 204 0.9 2.6 0.00 0.00 0.00 67 1002.5
20260906111006 58 204 1.7 2.6 0.00 0.00 0.00 69 1019.7
20260906110505 57 204 0.9 2.6 0.00 0.00 0.00 71 1019.7
20260906110007 57 204 0.9 4.3 0.00 0.00 0.00 72 1019.7
20260906110004 57 204 0.9 4.3 0.00 0.00 0.00 72 1002.5
20260906105005 58 204 1.7 5.2 0.00 0.00 0.00 71 1019.6
20260906104505 58 204 2.6 4.3 0.00 0.00 0.00 71 1019.6
20260906104503 58 204 2.6 4.3 0.00 0.00 0.00 71 1002.3
20260906104005 59 204 1.7 3.5 0.00 0.00 0.00 69 1019.7
20260906103006 59 204 2.6 3.5 0.00 0.00 0.00 69 1019.6
20260906103004 59 204 2.6 3.5 0.00 0.00 0.00 69 1002.3
20260906102006 59 204 0.0 3.5 0.00 0.00 0.00 71 1019.7
20260906101558 59 204 0.9 4.3 0.00 0.00 0.00 72 1002.4
20260906101505 59 204 0.9 4.3 0.00 0.00 0.00 72 1019.7
20260906101006 59 204 3.5 4.3 0.00 0.00 0.00 74 1019.7
20260906100505 59 204 2.6 3.5 0.00 0.00 0.00 74 1019.7
20260906100004 59 204 2.6 5.2 0.00 0.00 0.00 74 1002.5
20260906095006 59 208 2.6 4.3 0.00 0.00 0.00 74 1019.9
20260906094511 59 238 1.7 4.3 0.00 0.00 0.00 74 1002.4
20260906094504 59 238 2.6 4.3 0.00 0.00 0.00 74 1019.8
20260906094005 59 238 2.6 3.5 0.00 0.00 0.00 73 1019.9
20260906093505 60 131 1.7 6.1 0.00 0.00 0.00 72 1019.9
20260906093006 60 131 3.5 6.1 0.00 0.00 0.00 72 1019.9
20260906091506 61 188 0.9 2.6 0.00 0.00 0.00 72 1019.7
20260906091502 61 188 0.9 2.6 0.00 0.00 0.00 72 1002.2
20260906090958 61 188 1.7 2.6 0.00 0.00 0.00 72 1019.5
20260906090506 61 188 0.9 3.5 0.00 0.00 0.00 73 1019.4
20260906090007 61 188 1.7 3.5 0.00 0.00 0.00 73 1019.4
20260906090003 61 188 1.7 3.5 0.00 0.00 0.00 73 1002.0
20260906085505 61 188 1.7 3.5 0.00 0.00 0.00 72 1019.5
20260906085006 62 188 2.6 3.5 0.00 0.00 0.00 70 1019.6
20260906084504 63 188 2.6 3.5 0.00 0.00 0.00 69 1019.5
20260906084006 64 188 1.7 3.5 0.00 0.00 0.00 67 1019.6
20260906083505 64 188 2.6 3.5 0.00 0.00 0.00 67 1019.7
20260906083003 63 188 1.7 3.5 0.00 0.00 0.00 65 1002.2
20260906082505 63 188 0.9 2.6 0.00 0.00 0.00 65 1019.6
20260906082005 63 188 0.0 4.3 0.00 0.00 0.00 64 1019.7
20260906081555 63 188 0.9 4.3 0.00 0.00 0.00 64 1002.2
20260906081508 63 188 0.9 4.3 0.00 0.00 0.00 64 1002.2
20260906080958 63 248 1.7 3.5 0.00 0.00 0.00 66 1019.8
20260906080505 62 248 2.6 3.5 0.00 0.00 0.00 68 1019.8
20260906080009 62 199 0.9 3.5 0.00 0.00 0.00 72 1002.1
20260906075505 61 199 1.7 5.2 0.00 0.00 0.00 74 1019.8
20260906075006 61 192 3.5 5.2 0.00 0.00 0.00 74 1019.8
20260906074506 61 165 1.7 4.3 0.00 0.00 0.00 74 1019.8
20260906074504 61 165 0.9 4.3 0.00 0.00 0.00 74 1002.2
20260906074005 61 165 1.7 2.6 0.00 0.00 0.00 72 1019.8
20260906073006 62 165 0.0 4.3 0.00 0.00 0.00 71 1019.9
20260906073003 62 165 0.0 4.3 0.00 0.00 0.00 71 1002.2
20260906072505 62 165 1.7 4.3 0.00 0.00 0.00 71 1019.9
20260906072006 62 165 1.7 4.3 0.00 0.00 0.00 70 1019.8
20260906071505 63 165 2.6 2.6 0.00 0.00 0.00 69 1019.8
20260906071503 63 165 1.7 2.6 0.00 0.00 0.00 69 1002.1
20260906071006 63 165 1.7 2.6 0.00 0.00 0.00 68 1019.8
20260906070505 65 165 0.0 2.6 0.00 0.00 0.00 65 1019.9
20260906070007 66 165 0.9 4.3 0.00 0.00 0.00 63 1019.9
20260906070003 66 165 0.0 4.3 0.00 0.00 0.00 63 1002.2
20260906065007 67 165 3.5 4.3 0.00 0.00 0.00 61 1020.0
20260906064506 67 212 1.7 2.6 0.00 0.00 0.00 63 1019.9
20260906064504 67 212 0.9 2.6 0.00 0.00 0.00 63 1002.2
20260906064005 67 212 0.9 2.6 0.00 0.00 0.00 62 1019.9
20260906063505 66 212 1.7 3.5 0.00 0.00 0.00 62 1019.9
20260906063005 67 212 0.9 4.3 0.00 0.00 0.00 64 1019.9
20260906063003 67 212 0.0 4.3 0.00 0.00 0.00 64 1002.1
20260906062505 67 313 2.6 4.3 0.00 0.00 0.00 63 1019.9
20260906062006 67 210 1.7 3.5 0.00 0.00 0.00 63 1019.8
20260906061505 67 210 1.7 3.5 0.00 0.00 0.00 64 1019.7
20260906061503 67 210 0.9 3.5 0.00 0.00 0.00 64 1001.8
20260906061006 67 210 1.7 6.1 0.00 0.00 0.00 64 1019.7
20260906060505 67 210 2.6 6.1 0.00 0.00 0.00 64 1019.7
20260906060007 67 290 2.6 3.5 0.00 0.00 0.00 64 1019.7
20260906060002 67 290 1.7 3.5 0.00 0.00 0.00 64 1001.7
20260906055505 67 290 1.7 3.5 0.00 0.00 0.00 64 1019.7
20260906054505 68 290 2.6 3.5 0.00 0.00 0.00 63 1019.9
20260906054007 69 290 1.7 3.5 0.00 0.00 0.00 62 1019.9
20260906053505 69 290 1.7 3.5 0.00 0.00 0.00 61 1019.9
20260906053009 70 290 1.7 3.5 0.00 0.00 0.00 60 1019.9
20260906053003 70 290 1.7 3.5 0.00 0.00 0.00 60 1001.8
20260906052506 70 290 0.0 3.5 0.00 0.00 0.00 59 1019.8
20260906052006 71 290 0.9 3.5 0.00 0.00 0.00 59 1019.8
20260906051503 71 290 1.7 3.5 0.00 0.00 0.00 59 1001.6
20260906051006 71 290 0.0 2.6 0.00 0.00 0.00 59 1019.8
20260906050506 72 290 0.9 6.1 0.00 0.00 0.00 58 1019.8
20260906050006 72 290 0.9 8.7 0.00 0.00 0.00 58 1019.9
20260906050002 72 290 0.9 8.7 0.00 0.00 0.00 58 1001.8
20260906045507 72 286 2.6 9.6 0.00 0.00 0.00 58 1019.9
20260906045006 71 300 6.1 9.6 0.00 0.00 0.00 59 1019.9
20260906044505 71 293 3.5 6.1 0.00 0.00 0.00 60 1019.9
20260906044503 71 293 2.6 6.1 0.00 0.00 0.00 60 1001.8
20260906044006 71 293 2.6 7.8 0.00 0.00 0.00 60 1020.0
20260906043504 71 302 2.6 7.8 0.00 0.00 0.00 59 1019.9
20260906043007 71 320 1.7 7.0 0.00 0.00 0.00 60 1019.8
20260906043004 71 320 1.7 7.0 0.00 0.00 0.00 60 1001.7
20260906042504 71 209 0.9 2.6 0.00 0.00 0.00 60 1019.8
20260906042006 71 209 0.9 2.6 0.00 0.00 0.00 60 1019.9
20260906041506 71 209 0.9 4.3 0.00 0.00 0.00 59 1019.9
20260906041006 72 209 0.9 5.2 0.00 0.00 0.00 59 1019.7
20260906040015 71 188 3.5 7.8 0.00 0.00 0.00 59 1001.6
20260906040008 71 188 4.3 7.8 0.00 0.00 0.00 59 1019.6
20260906035505 71 147 4.3 8.7 0.00 0.00 0.00 59 1019.7
20260906035006 71 234 4.3 11.3 0.00 0.00 0.00 59 1019.6
20260906034507 72 181 6.1 11.3 0.00 0.00 0.00 59 1001.7
20260906034007 72 192 6.1 10.4 0.00 0.00 0.00 59 1019.7
20260906033505 72 180 6.1 10.4 0.00 0.00 0.00 59 1019.7
20260906033010 72 167 7.0 9.6 0.00 0.00 0.00 59 1019.7
20260906033004 72 167 6.1 9.6 0.00 0.00 0.00 59 1001.8
20260906032505 71 187 7.0 9.6 0.00 0.00 0.00 59 1019.6
20260906032006 71 171 6.1 9.6 0.00 0.00 0.00 58 1019.5
20260906031504 71 180 6.1 9.6 0.00 0.00 0.00 58 1019.5
20260906031502 71 180 6.1 9.6 0.00 0.00 0.00 58 1001.8
20260906031007 72 162 6.1 9.6 0.00 0.00 0.00 57 1019.5
20260906030009 72 186 6.1 8.7 0.00 0.00 0.00 53 1001.7
20260906024601 73 166 6.1 13.9 0.00 0.00 0.00 51 1001.7
20260906024512 73 169 7.0 13.9 0.00 0.00 0.00 51 1001.7
20260906024505 73 169 7.8 13.9 0.00 0.00 0.00 51 1019.3
20260906024006 73 147 10.4 13.9 0.00 0.00 0.00 49 1019.2
20260906023505 74 154 8.7 20.9 0.00 0.00 0.00 48 1019.1
20260906023005 73 130 11.3 20.9 0.00 0.00 0.00 51 1001.5
20260906022505 73 202 0.9 2.6 0.00 0.00 0.00 40 1018.6
20260906021508 74 202 0.9 1.7 0.00 0.00 0.00 37 1000.9
20260906021505 74 202 1.7 1.7 0.00 0.00 0.00 37 1018.4
20260906021006 74 202 0.9 1.7 0.00 0.00 0.00 37 1018.4
20260906020505 75 202 0.0 0.0 0.00 0.00 0.00 38 1018.4
20260906020006 76 202 0.0 0.0 0.00 0.00 0.00 38 1018.3
20260906020004 76 202 0.0 0.0 0.00 0.00 0.00 38 1000.8
20260906015505 76 202 0.0 0.9 0.00 0.00 0.00 38 1018.3
20260906015009 77 202 0.0 0.9 0.00 0.00 0.00 34 1018.3
20260906014508 77 202 0.0 0.9 0.00 0.00 0.00 34 1000.8
20260906014505 77 202 0.0 0.9 0.00 0.00 0.00 34 1018.3
20260906014006 77 202 0.0 0.0 0.00 0.00 0.00 34 1018.3
20260906013105 78 202 0.0 0.9 0.00 0.00 0.00 33 1000.8
20260906012959 78 202 0.0 0.9 0.00 0.00 0.00 33 1018.3
20260906012505 78 202 0.0 3.5 0.00 0.00 0.00 34 1018.3
20260906012006 79 202 0.9 3.5 0.00 0.00 0.00 32 1018.3
20260906011505 79 161 1.7 5.2 0.00 0.00 0.00 31 1000.8
20260906011007 79 161 3.5 5.2 0.00 0.00 0.00 32 1018.2
20260906010505 79 161 1.7 2.6 0.00 0.00 0.00 34 1018.2
20260906010007 79 161 0.9 2.6 0.00 0.00 0.00 34 1018.4
20260906010004 79 161 0.9 2.6 0.00 0.00 0.00 34 1000.9
20260906005505 80 161 1.7 2.6 0.00 0.00 0.00 34 1018.5
20260906004505 80 161 1.7 4.3 0.00 0.00 0.00 31 1018.5
20260906004007 80 161 2.6 4.3 0.00 0.00 0.00 31 1018.5
20260906003505 80 161 3.5 5.2 0.00 0.00 0.00 31 1018.5
20260906003006 80 161 3.5 5.2 0.00 0.00 0.00 30 1018.5
20260906003003 80 161 2.6 5.2 0.00 0.00 0.00 30 1001.1
20260906002505 81 161 3.5 6.1 0.00 0.00 0.00 29 1018.4
20260906002008 81 161 3.5 6.1 0.00 0.00 0.00 29 1018.4
20260906001506 82 161 4.3 6.1 0.00 0.00 0.00 28 1018.3
20260906001503 82 161 3.5 6.1 0.00 0.00 0.00 28 1000.9
20260906001007 82 167 5.2 6.1 0.00 0.00 0.00 27 1018.4
20260906000008 83 164 4.3 7.0 0.00 0.00 0.00 27 1018.2
20260906000004 83 164 4.3 7.0 0.00 0.00 0.00 27 1000.7
20260905235507 83 169 3.5 6.1 0.00 0.00 0.00 27 1018.2
20260905235006 84 163 4.3 6.1 0.00 0.00 0.00 27 1018.2
20260905234506 84 168 2.6 5.2 0.00 0.00 0.00 27 1018.1
20260905234504 84 168 2.6 5.2 0.00 0.00 0.00 27 1000.6
20260905234006 84 194 3.5 7.0 0.00 0.00 0.00 26 1018.2
20260905233506 85 153 4.3 8.7 0.00 0.00 0.00 25 1018.0
20260905233006 84 157 4.3 7.0 0.00 0.00 0.00 25 1018.1
20260905233003 84 157 4.3 7.0 0.00 0.00 0.00 25 1000.6
20260905232505 84 165 4.3 7.0 0.00 0.00 0.00 27 1018.0
20260905232001 83 144 3.5 7.0 0.00 0.00 0.00 26 1018.1
20260905231505 83 163 5.2 8.7 0.00 0.00 0.00 27 1018.1
20260905231006 83 165 5.2 8.7 0.00 0.00 0.00 28 1018.1
20260905230110 83 163 3.5 8.7 0.00 0.00 0.00 27 1000.7
20260905225505 83 188 4.3 8.7 0.00 0.00 0.00 27 1018.2
20260905224505 84 167 6.1 9.6 0.00 0.00 0.00 27 1000.7
20260905224006 83 171 4.3 6.1 0.00 0.00 0.00 27 1018.2
20260905223505 83 153 4.3 7.0 0.00 0.00 0.00 26 1018.1
20260905223008 84 149 3.5 8.7 0.00 0.00 0.00 25 1018.1
20260905223004 84 149 3.5 8.7 0.00 0.00 0.00 25 1000.6
20260905222006 85 161 7.0 10.4 0.00 0.00 0.00 25 1018.2
20260905221506 85 151 7.0 9.6 0.00 0.00 0.00 26 1018.2
20260905221504 85 151 6.1 9.6 0.00 0.00 0.00 26 1000.7
20260905221005 84 125 7.8 9.6 0.00 0.00 0.00 26 1018.2
20260905220458 83 108 6.1 8.7 0.00 0.00 0.00 25 1018.2
20260905220004 83 147 4.3 7.0 0.00 0.00 0.00 26 1000.8
20260905215505 83 117 1.7 3.5 0.00 0.00 0.00 26 1018.2
20260905214508 83 150 1.7 4.3 0.00 0.00 0.00 24 1018.3
20260905214503 83 150 1.7 4.3 0.00 0.00 0.00 24 1000.8